{"data":{"norad_id":41793,"epoch":"2026-05-25T04:05:45.234816Z","epoch_age_seconds":50405,"freshness":"FRESH","line1":"1 41793U 16060A   26145.17066244 -.00000079  00000+0  00000+0 0  9990","line2":"2 41793   0.0676  96.9541 0005578 330.3731 310.8784  1.00271839 35295","mean_motion":1.00271839,"eccentricity":0.0005578,"inclination_deg":0.0676,"raan_deg":96.9541,"arg_perigee_deg":330.3731,"mean_anomaly_deg":310.8784,"bstar":0,"rev_number":3529,"period_min":1436.0961306394,"perigee_km":35763.060343993,"apogee_km":35810.099302081,"semimajor_km":42164.716823037,"source":"CELESTRAK","updated_at":"2026-05-25T13:38:14.007673Z"}}